FW8736 Weather Reports


Display with metric or nautical units.
time (UTC)temp
F
wind
direction
speed
MPH
gust
MPH
rain 1hr
in
rain 24hr
in
rain mn
in
humidity
%
barometer
mb
20260504081017 52 146 2.0 4.0 0.00 0.00 0.00 77 1014.8
20260504050017 43 151 0.0 1.0 0.00 0.00 0.00 87 1015.0
20260504045017 43 108 0.0 1.0 0.00 0.00 0.00 85 1015.1
20260504044017 43 0.0 0.0 0.00 0.00 0.00 83 1015.1
20260504043017 43 139 0.0 2.0 0.00 0.00 0.00 83 1015.0
20260504042018 43 0.0 0.0 0.00 0.00 0.00 83 1015.0
20260504041018 43 0.0 0.0 0.00 0.00 0.00 82 1014.9
20260504040018 43 0.0 0.0 0.00 0.00 0.00 81 1014.8
20260504035015 43 0.0 0.0 0.00 0.00 0.00 79 1014.7
20260504034015 42 121 0.0 1.0 0.00 0.00 0.00 81 1014.7
20260504033015 42 0.0 0.0 0.00 0.00 0.00 83 1014.7
20260504032016 43 94 0.0 1.0 0.00 0.00 0.00 81 1014.5
20260504031016 42 0.0 0.0 0.00 0.00 0.00 80 1014.4
20260504030036 43 118 0.0 1.0 0.00 0.00 0.00 82 1014.5
20260504025016 43 107 0.0 2.0 0.00 0.00 0.00 80 1014.5
20260504024017 44 103 0.0 1.0 0.00 0.00 0.00 78 1014.4
20260504023036 44 0.0 0.0 0.00 0.00 0.00 78 1014.5
20260504022017 45 127 0.0 2.0 0.00 0.00 0.00 78 1014.5
20260504021017 45 113 0.0 2.0 0.00 0.00 0.00 75 1014.4
20260504020017 45 0.0 0.0 0.00 0.00 0.00 74 1014.4
20260504015017 46 0.0 0.0 0.00 0.00 0.00 74 1014.4
20260504014017 47 107 0.0 2.0 0.00 0.00 0.00 70 1014.3
20260504013017 47 104 0.0 1.0 0.00 0.00 0.00 69 1014.2
20260504012018 48 0.0 0.0 0.00 0.00 0.00 68 1014.1
20260504011018 49 0.0 0.0 0.00 0.00 0.00 68 1014.1
20260504010019 50 111 0.0 1.0 0.00 0.00 0.00 65 1014.0
20260504005015 51 0.0 0.0 0.00 0.00 0.00 60 1014.0
20260504004015 52 99 0.0 2.0 0.00 0.00 0.00 58 1013.9
20260504003016 54 118 0.0 2.0 0.00 0.00 0.00 53 1013.8
20260504002016 56 130 1.0 2.0 0.00 0.00 0.00 49 1013.6
20260504001016 57 197 1.0 2.0 0.00 0.00 0.00 46 1013.6
20260504000016 58 191 0.0 2.0 0.00 0.00 0.00 45 1013.4
20260503235016 59 184 1.0 3.0 0.00 0.00 0.00 43 1013.3
20260503234017 59 196 2.0 4.0 0.00 0.00 0.00 41 1013.2
20260503233017 60 198 1.0 3.0 0.00 0.00 0.00 40 1013.2
20260503232038 60 202 2.0 4.0 0.00 0.00 0.00 39 1013.2
20260503231018 61 208 3.0 6.0 0.00 0.00 0.00 39 1013.2
20260503230017 62 208 1.0 4.0 0.00 0.00 0.00 38 1013.2
20260503225018 62 205 2.0 8.0 0.00 0.00 0.00 37 1013.3
20260503224018 62 210 3.0 8.0 0.00 0.00 0.00 36 1013.2
20260503223015 63 204 3.0 8.0 0.00 0.00 0.00 37 1013.2
20260503222035 63 225 3.0 9.0 0.00 0.00 0.00 36 1013.3
20260503221018 62 204 3.0 8.0 0.00 0.00 0.00 36 1013.3
20260503220015 62 214 4.0 10.0 0.00 0.00 0.00 37 1013.4
20260503215016 63 220 4.0 9.0 0.00 0.00 0.00 37 1013.3
20260503214016 62 232 4.0 9.0 0.00 0.00 0.00 36 1013.4
20260503213016 62 224 5.0 9.0 0.00 0.00 0.00 36 1013.3
20260503212056 62 245 4.0 9.0 0.00 0.00 0.00 37 1013.2
20260503211036 62 212 5.0 9.0 0.00 0.00 0.00 37 1013.2
20260503210017 62 227 5.0 10.0 0.00 0.00 0.00 37 1013.3
20260503205018 62 247 4.0 10.0 0.00 0.00 0.00 37 1013.4
20260503204017 62 223 4.0 9.0 0.00 0.00 0.00 37 1013.5
20260503203017 62 213 4.0 9.0 0.00 0.00 0.00 38 1013.5
20260503202058 61 222 3.0 9.0 0.00 0.00 0.00 38 1013.6
20260503201017 61 273 3.0 10.0 0.00 0.00 0.00 37 1013.8
20260503200018 61 221 4.0 9.0 0.00 0.00 0.00 38 1013.8
20260503195018 61 224 6.0 10.0 0.00 0.00 0.00 38 1014.0
20260503194018 60 232 4.0 9.0 0.00 0.00 0.00 38 1014.2
20260503193038 60 224 5.0 10.0 0.00 0.00 0.00 38 1014.2
20260503192015 60 251 5.0 11.0 0.00 0.00 0.00 37 1014.2
20260503191035 60 249 5.0 9.0 0.00 0.00 0.00 37 1014.4
20260503190015 59 304 5.0 11.0 0.00 0.00 0.00 37 1014.4
20260503185016 59 287 5.0 10.0 0.00 0.00 0.00 38 1014.4
20260503184036 59 237 6.0 11.0 0.00 0.00 0.00 37 1014.5
20260503183016 59 216 6.0 11.0 0.00 0.00 0.00 38 1014.6
20260503182016 59 257 5.0 9.0 0.00 0.00 0.00 38 1014.7
20260503181017 58 255 5.0 9.0 0.00 0.00 0.00 38 1014.8
20260503180017 58 231 4.0 11.0 0.00 0.00 0.00 38 1014.7
20260503175017 59 224 4.0 9.0 0.00 0.00 0.00 38 1014.9
20260503174037 58 235 5.0 13.0 0.00 0.00 0.00 38 1015.0
20260503173017 58 239 4.0 10.0 0.00 0.00 0.00 39 1015.0
20260503172017 57 230 5.0 9.0 0.00 0.00 0.00 40 1015.1
20260503171018 57 220 5.0 9.0 0.00 0.00 0.00 40 1015.1
20260503131016 50 322 5.0 14.0 0.00 0.00 0.00 53 1015.3